H-2A R/B, 40268

Orbit data source: Space-Track

H-2A R/B, 40268 is space debris in HEO originally from a launch on Tue, 07 Oct 2014 UTC launched from the Tanegashima Space Center (TNSTA). Debris objects in space refer to the collection of defunct objects orbiting the Earth. Examples of debris include non-operational satellites, rocket bodies, and fragments generated from explosions, collisions, or faulty payload assembly.

Loading next visibility...
Identifier
40268, 2014-060B
Orbit
HEO
Country
Flag of JPJP / JPN
Related business
Manufacturer
MHI Tobishima
Mission
Spacecraft
Bus & Motor
H-2A STAGE 2, Unknown motor
Mass
4,000 kg wet, 4,000 kg dry
Launch date (UTC)
2014-10-07 (11 years ago)
Launch vehicle
Unknown
Launch site
Tanegashima Space Center (TNSTA)
Object type
Payload
Rocket body
Debris
Shape & HBR
Cyl, 4.6 m
Radar Cross Section
35.186 m², Large (>1 m²)

Expand to show TLE details & history
Last TLE update: 1 day ago

TLE from 1 day ago
0 H-2A R/B
1 40268U 14060B   25341.76274039  .00012845  00000-0  14651-2 0  9993
2 40268  22.6596  36.9645 6648270 280.8865  15.7815  3.13521222107775
Epoch: 2025-12-07T18:18Z
TLE epoch observation values (Epoch: 2025-12-07T18:18:20.769Z)
Latitude
0.00061°
Longitude
45.61201°
Altitude
3,418.275 km
Speed
7.82 km/s
True Right ascension
02h 27m 52s
True Declination
0° 00' 02"
Sunlit
Object was in daylight at epoch
Visualization orbit readout
Latitude
Unknown
Longitude
Unknown
Altitude
Unknown
Speed
Unknown
Apparent Right ascension
Unknown
Apparent Declination
Unknown
Sunlit
N/A
Visualization observer readout
Local Sidereal Time
17:26:54
Azimuth
Unknown
Elevation
Unknown
Doppler factor
Unknown
Orbital elements
Apogee altitude
26,457.97 km
Perigee altitude
232.626 km
Semi-major axis
19,723.435 km
Eccentricity
0.66483
Inclination
22.6596°
RAAN
36.9645°
Arg. of periapsis
280.8865°
True anomaly
78.9161°
Mean anomaly
15.7815°
Eccentric anomaly
40.5407°
Mean motion
0.78355 °/min
Orbital period
459.44 mins
BSTAR
0.0014651
Loading maneuver chart data...
Computing Atmospheric mass density...
Loading historical data...
Loading historical data...
Loading historical data...
Loading historical data...
Loading historical data...
Loading historical data...
Loading historical data...
Other satellites on launch #60 in the year 2014 (2014-10-07 UTC)

Documentation

Showing up to 5 results
|